ロニオス彗星

P/2006 Q2 ( LONEOS )

English version
Home page
Updated on February 4, 2007

---------------------------------------------------------------------

・ プロフィール

発見日 2006年8月29日
発見光度 18.2等
発見者 Lowell Observatory Near-Earth Object Search

・ 写真集

・ 軌道要素

T 2006 Sept. 2.8996 TT                                  MPC
q   1.337888             (2000.0)            P               Q
n   0.1652539      Peri.   96.8559      +0.9476779      +0.3077137
a   3.288780       Node   245.2512      -0.3171618      +0.8773472
e   0.593196       Incl.    5.3683      -0.0362636      +0.3682039
P   5.96
From 150 observations 2006 Aug. 29-Oct. 17.

・ 光度変化

        m1 = 19.5 + 5 logΔ + 10.0 log r

---------------------------------------------------------------------

軌道要素はM.P.E.C. 2006-U26に掲載されたものです。
光度グラフはComet for Windowsで作成したものです。

---------------------------------------------------------------------

Copyright(C) Seiichi Yoshida (comet@aerith.net). All rights reserved.